Simultaneous Nadir Overpasses (SNOs) Predictions

Prediction of SNOs between AQUA and NPP Satellite Orbit:

Table of predicted SNOs for the next 14.0 days since TLE Epoch: 4/1/2023
Index Date (AQUA) Time (AQUA) Lat,Lon (AQUA) SZA (AQUA ) Date (NPP) Time (NPP) Lat,Lon (NPP) SZA (NPP ) Distance(km) Time Diff (sec)
1 04/01/2023 12:36:53 -79.66, 69.90 92.36 04/01/2023 12:36:37 -79.66, 69.93 92.36 0.69 16
2 04/01/2023 13:26:12 79.84,-121.02 87.34 04/01/2023 13:27:16 79.84,-121.14 87.32 2.53 64
3 04/04/2023 03:12:24 -79.71,-148.61 93.46 04/04/2023 03:12:02 -79.71,-148.47 93.47 2.92 22
4 04/04/2023 04:01:43 79.88, 20.45 86.25 04/04/2023 04:02:41 79.88, 20.45 86.21 0.19 58
5 04/06/2023 17:47:58 -79.61, -8.20 94.32 04/06/2023 17:47:33 -79.60, -8.34 94.28 3.00 25
6 04/06/2023 18:37:14 79.89, 161.65 85.23 04/06/2023 18:38:08 79.89, 161.69 85.18 0.83 54
7 04/09/2023 08:23:25 -79.69, 133.60 95.45 04/09/2023 08:22:57 -79.70, 133.69 95.45 1.94 28
8 04/09/2023 09:12:44 79.87, -57.40 84.27 04/09/2023 09:13:36 79.87, -57.42 84.24 0.38 52
9 04/11/2023 22:58:54 -79.64, -85.67 96.35 04/11/2023 22:58:26 -79.63, -85.73 96.32 1.31 28
10 04/11/2023 23:48:10 79.91, 84.14 83.22 04/11/2023 23:49:01 79.92, 84.28 83.15 2.96 51
11 04/14/2023 13:34:18 -79.69, 55.90 97.39 04/14/2023 13:33:51 -79.69, 55.90 97.37 0.09 27



Historial Predications of SNOs between AQUA and NPP
